Glencoe, MN

8:03 AM CST on November 12, 2019 (GMT -0600)
Glencoe Municipal

Weather History for KGYL - October, 2019

Change the Weather History Date:

Monday, October 21, 2019

  Actual Average (KHCD) Record (KHCD)
Temperature  
Mean Temperature 48 °F -  
Max Temperature 55 °F 56 °F 78 °F (1978)
Min Temperature 41 °F 35 °F 22 °F (1967)
Degree Days  
Heating Degree Days 16    
Moisture  
Dew Point 46 °F    
Average Humidity 91    
Maximum Humidity 100    
Minimum Humidity 63    
Precipitation  
Precipitation 0.84 in - - ()
Sea Level Pressure  
Sea Level Pressure 29.30 in    
Wind  
Wind Speed 12 mph (NNE)    
Max Wind Speed 26 mph    
Max Gust Speed 38 mph    
Visibility 8 miles    
Events Rain    
Averages and records for this station are not official NWS values.
T = Trace of Precipitation, MM = Missing Value Source: NWS Daily Summary

Daily Weather History Graph

Daily Weather History Graph

Search for Another Location

Airport or City:

Astronomy

Oct. 21, 2019 Rise Set
Actual Time 7:39 AM CDT 6:21 PM CDT
Civil Twilight 7:09 AM CDT 6:51 PM CDT
Nautical Twilight 6:35 AM CDT 7:25 PM CDT
Astronomical Twilight 6:01 AM CDT 7:59 PM CDT
Moon No Moon Rise 3:06 PM CDT (10/21)
Length of Visible Light 11h 42m
Length of Day
10h 42m
Waning Gibbous, 48% of the Moon is Illuminated
Oct 21
Waning Gibbous
Oct 27
New
Nov 4
First Quarter
Nov 12
Full
Nov 19
Last Quarter

Hourly Weather History & Observations

Time (CDT) Temp. Windchill Dew Point Humidity Pressure Visibility Wind Dir Wind Speed Gust Speed Precip Events Conditions
12:15 AM 56.1 °F - 44.1 °F 64% 29.70 in 10.0 mi East 15.0 mph 20.7 mph N/A   Overcast
12:16 AM 56.1 °F - 44.1 °F 64% 29.70 in 10.0 mi East 15.0 mph 20.7 mph N/A   Overcast
12:38 AM 55.4 °F - 44.6 °F 67% 29.69 in 10.0 mi East 13.8 mph - N/A   Overcast
12:55 AM 55.6 °F - 44.2 °F 66% 29.67 in 10.0 mi East 13.8 mph - N/A   Overcast
1:15 AM 55.4 °F - 43.9 °F 65% 29.64 in 10.0 mi East 16.1 mph 21.9 mph N/A   Overcast
1:39 AM 55.0 °F - 43.7 °F 66% 29.65 in 10.0 mi ESE 11.5 mph 18.4 mph N/A   Overcast
1:56 AM 55.4 °F - 43.7 °F 65% 29.63 in 10.0 mi ESE 12.7 mph - N/A   Overcast
2:15 AM 54.5 °F - 43.5 °F 66% 29.62 in 10.0 mi East 11.5 mph - N/A   Overcast
2:16 AM 54.5 °F - 43.5 °F 66% 29.62 in 10.0 mi East 11.5 mph - N/A   Overcast
2:37 AM 54.9 °F - 42.8 °F 64% 29.62 in 10.0 mi ESE 13.8 mph - N/A   Overcast
2:55 AM 55.4 °F - 43.3 °F 64% 29.60 in 10.0 mi ESE 17.3 mph 23.0 mph N/A   Overcast
3:15 AM 55.4 °F - 43.2 °F 63% 29.59 in 10.0 mi East 16.1 mph 20.7 mph N/A   Overcast
3:16 AM 55.4 °F - 43.2 °F 63% 29.59 in 10.0 mi East 17.3 mph 20.7 mph N/A   Overcast
3:38 AM 54.3 °F - 44.1 °F 68% 29.58 in 10.0 mi East 20.7 mph 27.6 mph N/A   Drizzle
3:56 AM 52.0 °F - 43.3 °F 72% 29.54 in 10.0 mi East 26.5 mph 36.8 mph N/A Rain Light Rain
4:15 AM 51.3 °F - 43.0 °F 73% 29.50 in 10.0 mi East 21.9 mph 34.5 mph N/A Rain Light Rain
4:35 AM 51.3 °F - 42.8 °F 73% 29.51 in 10.0 mi East 18.4 mph 26.5 mph N/A Rain Light Rain
4:58 AM 51.6 °F - 42.3 °F 70% 29.51 in 10.0 mi East 19.6 mph 26.5 mph N/A   Light Drizzle
5:15 AM 51.8 °F - 42.1 °F 69% 29.50 in 10.0 mi East 17.3 mph 24.2 mph N/A   Light Drizzle
5:35 AM 50.5 °F - 43.2 °F 76% 29.49 in 10.0 mi East 16.1 mph 21.9 mph N/A   Drizzle
5:36 AM 50.5 °F - 43.3 °F 76% 29.49 in 10.0 mi East 15.0 mph 21.9 mph N/A Rain Rain
5:57 AM 49.6 °F - 44.6 °F 83% 29.47 in 10.0 mi East 15.0 mph 23.0 mph 0.01 in Rain Light Rain
6:15 AM 49.3 °F - 45.3 °F 86% 29.44 in 7.0 mi ENE 13.8 mph 21.9 mph 0.02 in Rain Light Rain
6:38 AM 48.0 °F - 48.2 °F 100% 29.39 in 5.0 mi ENE 16.1 mph 26.5 mph 0.06 in Rain Rain
6:55 AM 47.7 °F - 47.8 °F 100% 29.41 in 5.0 mi ENE 18.4 mph 35.7 mph 0.10 in Rain Light Rain
7:15 AM 47.5 °F - 47.7 °F 100% 29.41 in 10.0 mi ENE 9.2 mph 24.2 mph 0.01 in Rain Rain
7:16 AM 47.5 °F - 47.7 °F 100% 29.41 in 10.0 mi ENE 9.2 mph 24.2 mph 0.01 in Rain Light Rain
7:37 AM 47.5 °F - 47.7 °F 100% 29.40 in 10.0 mi ENE 12.7 mph 18.4 mph 0.01 in Rain Light Rain
7:55 AM 47.5 °F - 47.7 °F 100% 29.38 in 7.0 mi NE 11.5 mph 20.7 mph 0.03 in Rain Light Rain
7:56 AM 47.5 °F - 47.7 °F 100% 29.38 in 7.0 mi NE 11.5 mph 20.7 mph 0.03 in Rain Light Rain
8:17 AM 47.3 °F - 47.5 °F 100% 29.36 in 10.0 mi NE 9.2 mph 18.4 mph 0.01 in Rain Rain
8:35 AM - - - N/A% 29.35 in 7.0 mi NE 9.2 mph 17.3 mph 0.02 in Rain Light Rain
8:36 AM - - - N/A% 29.35 in 7.0 mi NE 10.4 mph 17.3 mph 0.02 in Rain Light Rain
8:55 AM 46.9 °F - 47.1 °F 100% 29.34 in 7.0 mi NE 11.5 mph 17.3 mph 0.04 in Rain Light Rain
8:59 AM 46.8 °F - 47.1 °F 100% 29.34 in 7.0 mi NE 11.5 mph 16.1 mph 0.05 in Rain Light Rain
9:17 AM - - - N/A% 29.33 in 5.0 mi NE 8.1 mph - 0.03 in Rain Rain
9:35 AM - - - N/A% 29.32 in 5.0 mi NE 8.1 mph - 0.06 in Rain Rain
9:55 AM 47.3 °F - 47.5 °F 100% 29.31 in 4.0 mi NE 10.4 mph - 0.12 in Rain Rain
9:56 AM 47.3 °F - 47.5 °F 100% 29.31 in 4.0 mi NE 9.2 mph - 0.12 in Rain Rain
10:19 AM 47.3 °F - 47.3 °F 100% 29.30 in 3.0 mi NE 9.2 mph - 0.10 in Rain Rain
10:36 AM 47.3 °F - 47.3 °F 100% 29.28 in 4.0 mi NNE 5.8 mph - 0.16 in Rain Rain
10:55 AM 47.3 °F - 47.5 °F 100% 29.27 in 5.0 mi NE 3.5 mph - 0.20 in Rain Rain
11:15 AM - - - N/A% 29.25 in 7.0 mi North 5.8 mph - 0.04 in Rain Rain
11:16 AM - - - N/A% 29.24 in 7.0 mi North 6.9 mph - 0.04 in Rain Rain
11:38 AM 46.8 °F - 46.9 °F 100% 29.24 in 5.0 mi NNW 5.8 mph - 0.07 in Rain Light Rain
11:55 AM 46.8 °F - 46.9 °F 100% 29.22 in 3.0 mi NNW 3.5 mph - 0.10 in Rain Rain
11:56 AM 46.8 °F - 46.9 °F 100% 29.22 in 3.0 mi North 4.6 mph - 0.11 in Rain Rain
12:15 PM - - - N/A% 29.20 in 5.0 mi North 4.6 mph - 0.02 in Rain Light Rain
12:16 PM - - - N/A% 29.20 in 5.0 mi North 4.6 mph - 0.02 in Rain Light Rain
12:38 PM 47.3 °F - 47.3 °F 100% 29.17 in 7.0 mi North 6.9 mph - 0.03 in Rain Light Rain
12:56 PM - - - N/A% 29.17 in 7.0 mi North 5.8 mph - 0.05 in Rain Rain
1:15 PM 47.3 °F - 47.3 °F 100% 29.13 in 10.0 mi North 9.2 mph - 0.01 in   Drizzle
1:16 PM 47.3 °F - 47.3 °F 100% 29.13 in 10.0 mi North 10.4 mph - 0.01 in   Drizzle
1:39 PM 47.3 °F - 47.3 °F 100% 29.13 in 10.0 mi North 4.6 mph - 0.01 in   Overcast
1:57 PM 47.3 °F - 47.5 °F 100% 29.12 in 10.0 mi North 4.6 mph - 0.01 in   Overcast
2:15 PM 47.5 °F - 47.7 °F 100% 29.12 in 10.0 mi North 5.8 mph - N/A   Overcast
2:16 PM 47.5 °F - 47.7 °F 100% 29.12 in 10.0 mi North 5.8 mph - N/A Rain Light Rain
2:35 PM 47.3 °F - 47.5 °F 100% 29.12 in 2.5 mi Calm Calm - 0.01 in   Heavy Drizzle
2:36 PM 47.3 °F - 47.5 °F 100% 29.11 in 2.5 mi North 3.5 mph - 0.01 in   Heavy Drizzle
2:57 PM 47.7 °F - 48.0 °F 100% 29.11 in 7.0 mi North 5.8 mph - 0.02 in   Overcast
3:16 PM 47.7 °F - 48.0 °F 100% 29.11 in 10.0 mi North 3.5 mph - N/A   Overcast
3:58 PM 48.2 °F - 48.2 °F 100% 29.10 in 10.0 mi Calm Calm - N/A   Overcast
4:15 PM 48.4 °F - 48.6 °F 100% 29.09 in 10.0 mi Calm Calm - N/A   Overcast
4:35 PM 48.4 °F - 48.6 °F 100% 29.09 in 7.0 mi West 3.5 mph - N/A   Light Drizzle
4:36 PM 48.4 °F - 48.6 °F 100% 29.10 in 10.0 mi Calm Calm - N/A   Light Drizzle
4:58 PM 48.4 °F - 48.6 °F 100% 29.09 in 5.0 mi Calm Calm - N/A Rain Rain
5:16 PM 48.4 °F - 48.6 °F 100% 29.09 in 10.0 mi Calm Calm - N/A   Overcast
5:35 PM 48.2 °F - 48.4 °F 100% 29.10 in 10.0 mi Calm Calm - N/A   Overcast
5:36 PM 48.2 °F - 48.4 °F 100% 29.09 in 10.0 mi Calm Calm - N/A   Overcast
6:16 PM 48.2 °F - 48.4 °F 100% 29.09 in 7.0 mi West 4.6 mph - N/A   Overcast
6:36 PM 48.0 °F - 48.2 °F 100% 29.09 in 10.0 mi Calm Calm - N/A   Overcast
6:59 PM 47.8 °F - 48.2 °F 100% 29.09 in 10.0 mi Calm Calm - N/A   Overcast
7:17 PM 47.8 °F - 48.2 °F 100% 29.10 in 10.0 mi Calm Calm - N/A   Overcast
7:36 PM 48.0 °F - 48.2 °F 100% 29.10 in 10.0 mi Calm Calm - N/A   Overcast
7:55 PM 48.2 °F - 48.2 °F 100% 29.11 in 10.0 mi NNW 3.5 mph - N/A   Overcast
8:18 PM 48.2 °F - 48.2 °F 100% 29.11 in 4.0 mi North 3.5 mph - N/A   Overcast
8:36 PM 48.2 °F - 48.2 °F 100% 29.11 in 5.0 mi NNW 4.6 mph - N/A   Overcast
8:55 PM 48.2 °F - 48.4 °F 100% 29.12 in 3.0 mi NNW 9.2 mph - 0.01 in Rain Heavy Rain
9:19 PM 46.6 °F - 46.8 °F 100% 29.14 in 2.5 mi NW 20.7 mph 29.9 mph 0.05 in Rain Rain
9:36 PM 44.6 °F 35.9 °F 44.6 °F 100% 29.15 in 5.0 mi NW 23.0 mph 32.2 mph 0.06 in Rain Light Rain
9:55 PM 43.7 °F 34.7 °F 43.7 °F 100% 29.16 in 4.0 mi NW 23.0 mph 32.2 mph 0.06 in Rain Light Rain
9:56 PM 43.7 °F 34.3 °F 43.7 °F 100% 29.16 in 4.0 mi NW 25.3 mph 32.2 mph 0.06 in Rain Light Rain
10:15 PM 42.8 °F 34.0 °F 43.0 °F 100% 29.17 in 4.0 mi NW 20.7 mph 34.5 mph 0.01 in Rain Light Rain
10:38 PM 42.1 °F 32.6 °F 42.3 °F 100% 29.19 in 5.0 mi NW 23.0 mph 33.4 mph 0.01 in Rain Rain
10:55 PM 41.9 °F 32.3 °F 41.9 °F 100% 29.20 in 5.0 mi NW 23.0 mph 32.2 mph 0.02 in Rain Light Rain
10:56 PM 41.9 °F 32.6 °F 41.9 °F 100% 29.20 in 5.0 mi NW 21.9 mph 32.2 mph 0.02 in Rain Light Rain
11:15 PM 41.9 °F 32.8 °F 41.9 °F 100% 29.22 in 4.0 mi NW 20.7 mph 38.0 mph 0.02 in   Unknown
11:16 PM 41.9 °F 33.4 °F 41.9 °F 100% 29.22 in 4.0 mi NW 18.4 mph 38.0 mph 0.02 in   Unknown
11:38 PM 41.2 °F 32.4 °F 41.4 °F 100% 29.23 in 7.0 mi NW 18.4 mph 28.8 mph 0.03 in Rain Light Rain
11:56 PM 41.0 °F 32.8 °F 41.2 °F 100% 29.25 in 5.0 mi NW 16.1 mph 31.1 mph 0.05 in Rain Light Rain